Voltar ao catálogo

DELTA 2 DEB

LostHEO
NORAD 26792·DEBRIS·🇺🇸 United States

Lançado Feb 23, 1992 de Cape Canaveral Space Force Station

Loading…

Próximas Passagens (próximas 24 horas)

TLE

ObsoletoSource: Space-Track

Época: Feb 26, 2026, 06:07 UTC

1 26792U 92009D   26057.25543716  .00012116  00000-0  46746-3 0  9990
2 26792  34.4669 290.7596 4396134 228.0979  85.0896  6.76283492585219

Acompanhe DELTA 2 DEB em tempo real com AllMySat

Download on the App Store